Location: *
(13.2257°S, 48.7193°W)
Time: 23:06:46
(UTC+00:00)

SL-16 R/B - Pass Details

Date: 21 May 2026
Orbit: 984 x 1007 km, 99.8° (Epoch: 7 June)

Event Time Altitude Azimuth Distance (km) Brightness Sun altitude
Rises 08:09:58 0° 173° (S) 3,745 5.5 -18.7°
Reaches altitude 10° 08:12:29 10° 176° (S) 2,792 4.8 -18.2°
Maximum altitude 08:18:40 63° 255° (WSW) 1,121 2.5 -16.7°
Drops below altitude 10° 08:24:49 10° 335° (NNW) 2,770 4.8 -15.3°
Sets 08:27:18 0° 338° (NNW) 3,713 5.5 -14.7°
